Regional Weather Roundup
Issued by NWS

Home | Current Version | Previous Version | Text Only | Print | Product List | Glossary On
Versions: 1 2 3 4 5 6 7 8 9 10 11 12 13 14 15 16 17 18 19 20 21 22 23 24 25 26 27 28 29 30 31 32 33 34 35 36 37 38 39 40 41 42 43 44 45 46 47 48 49 50
000
ASUS45 KSLC 250510
RWRUT

UTAH REGIONAL WEATHER ROUNDUP
NATIONAL WEATHER SERVICE SALT LAKE CITY UT
1100 PM MDT SAT SEP 24 2016

UTZ001>011-023>025-250600-

NORTHERN UTAH

CITY           SKY/WX    TMP DP  RH WIND       PRES   REMARKS
BRIGHAM CITY     N/A     51  45  78 CALM      30.38R
HILL AFB       CLEAR     50  40  67 E8        30.38R
LOGAN          CLEAR     48  42  80 CALM      30.39R
OGDEN          CLEAR     50  41  71 S6        30.38R
PROVO AIRPORT  CLEAR     46  42  86 SE5       30.38
SALT LAKE CITY CLEAR     51  43  74 SW6       30.36R
VERNAL         CLOUDY    50  33  52 N5        30.37R
WENDOVER       CLEAR     54  45  71 W3        30.37R
HEBER CITY     CLEAR     43  36  75 CALM      30.39R
WEST JORDAN    CLEAR     48  43  83 W3        30.39R

$$

UTZ012>022-026-027-250600-

SOUTHERN/CENTRAL UTAH

CITY           SKY/WX    TMP DP  RH WIND       PRES   REMARKS
BLANDING       CLEAR     48  36  64 N7        30.37S
BRYCE CANYON   CLEAR     45  28  51 N14       30.42R
CEDAR CITY     CLEAR     48  35  60 N8        30.36R
DELTA          CLEAR     50  43  76 NE5       30.37R
MILFORD        CLEAR     52  39  61 NW12      30.35F
MOAB/CYNLANDS  CLOUDY    57  43  59 CALM      30.28R
PRICE          CLEAR     46  34  62 NW7       30.37R
ST GEORGE      CLEAR     72  34  25 NE17G26   30.21R

$$

REGIONAL REPORTS     COLORADO/ARIZONA

CITY           SKY/WX    TMP DP  RH WIND       PRES   REMARKS
CRAIG, CO      CLOUDY    44  41  89 CALM      30.40R
GRAND JUNCTION MOCLDY    51  42  71 NE8       30.32R
RIFLE          CLOUDY    49  45  86 E5        30.37R
MONTROSE       CLOUDY    51  41  68 CALM      30.36R
CORTEZ         PTCLDY    48  37  65 NE6       30.29R
PAGE, AZ       MOCLDY    66  34  30 N10       30.24R
GRAND CANYON   CLEAR     42  36  79 CALM      30.33S
KINGMAN        CLEAR     59  32  36 E6        30.16S
FLAGSTAFF      CLEAR     50  30  46 NE15      30.32S

$$

REGIONAL REPORTS    NEVADA/IDAHO/WYOMING

CITY           SKY/WX    TMP DP  RH WIND       PRES   REMARKS
LAS VEGAS, NV  CLEAR     76  29  17 CALM      30.11R
ELY            CLEAR     45  31  58 N3        30.43R
ELKO           CLEAR     45  35  68 SW5       30.40R
POCATELLO, ID  CLEAR     50  34  54 SW10      30.38S
BURLEY         CLEAR     45  37  73 S9        30.36R
EVANSTON, WY   CLEAR     42  32  67 S3        30.44R
ROCK SPRINGS   CLOUDY    40  34  79 W5        30.40R

$$



USA.gov is the U.S. government's official web portal to all federal, state and local government web resources and services.